SCP
0 0 0 0 0 0 0 0 0 0 0 0 0 0 0 0 0 0 0 0 0 0 0 0 0 0 0 0 0 0 0 0 0 0 0 0 0 0 0 0 0 0 0 0 0 0 0 0 0
0 0 0 0 0 0 0 0 0 0 0 0 0 0 0 0 0 0 0 0 0 0 0 0 0 0 0 0 0 0 0 0 0 0 0 0 0 0 0 0 0 0 0 0 0 0 0 0 0
0 0 0 0 0 0 0 0 0 0 0 0 0 0 0 0 0 0 0 0 0 0 0 0 0 0 0 0 0 0 0 0 0 0 0 0 0 0 0 0 0 0 0 0 0 0 0 0 0
0 0 0 0 0 -0 0 0 0 0 0 0 0 0 0 0 0 0 0 0 0 0 0 0 0 0 0 0 0 0 0 0 0 0 0 0 0 0 0 0 0 0 0 0 0 0 0 0 0
0 0 0 -0 -0 -0 0 0 0 0 0 0 0 0 0 0 0 0 0 0 0 0 0 0 0 0 0 0 0 0 0 0 0 0 0 0 0 0 0 0 0 0 0 0 0 0 0 0 0
0 0 0 0 0 0 0 0 0 0 0 0 0 0 0 0 0 0 0 0 0 0 0 0 0 0 0 0 0 0 0 0 0 0 0 0 0 0 0 0 0 0 0 0 0 0 0 0 0
0 0 0 0 0 0 0 0 0 0 0 0 0 0 0 0 0 0 0 0 0 0 0 0 0 0 0 0 0 0 0 0 0 0 0 0 0 0 0 0 0 0 0 0 0 0 0 0 0
0 0 0 0 0 0 0 0 0 0 0 0 0 0 0 0 0 0 0 0 0 0 0 0 0 0 0 0 0 0 0 0 0 0 0 0 0 0 0 0 0 0 0 0 0 0 0 0 0
0 0 0 0 0 0 0 0 0 0 0 0 0 0 0 0 0 0 0 0 0 0 0 0 0 0 0 0 0 0 0 0 0 0 0 0 0 0 0 0 0 0 0 0 0 0 0 0 0
0 0 0 0 0 0 0 0 0 0 0 0 0 0 0 0 0 0 0 0 0 0 0 0 0 0 0 0 0 0 0 0 0 0 0 0 0 0 0 0 0 0 0 0 0 0 0 0 0
0 0 0 0 0 0 0 0 0 0 0 0 0 0 0 0 0 0 0 0 0 0 0 0 0 0 0 0 0 0 0 0 0 0 0 0 0 0 0 0 0 0 0 0 0 0 0 0 0
0 0 0 0 0 0 0 0 0 0 0 0 0 0 0 0 0 0 0 0 0 0 0 0 0 0 0 0 0 0 0 0 0 0 0 0 0 0 0 0 0 0 0 0 0 0 0 0 0
0 0 0 0 0 0 0 0 0 0 0 0 0 0 0 0 0 0 0 0 0 0 0 0 0 0 0 0 0 0 0 0 0 0 0 0 0 0 0 0 0 0 0 0 0 0 0 0 0
0 0 0 0 0 0 0 0 0 0 0 0 0 0 0 0 0 0 0 0 0 0 0 0 0 0 0 0 0 0 0 0 0 0 0 0 0 0 0 0 0 0 0 0 0 0 0 0 0
0 0 0 0 0 0 0 0 0 0 0 0 0 0 0 0 0 0 0 0 0 0 0 0 0 0 0 0 0 0 0 0 0 0 0 0 0 0 0 0 0 0 0 0 0 0 0 0 0
0 0 0 0 0 0 0 0 0 0 0 0 0 0 0 0 0 0 0 0 0 0 0 0 0 0 0 0 0 0 0 0 0 0 0 0 0 0 0 0 0 0 0 0 0 0 0 0 0
0 0 0 0 0 0 0 0 0 0 0 0 0 0 0 0 0 0 0 0 0 0 0 0 0 0 0 0 0 0 0 0 0 0 0 0 0 0 0 0 0 0 0 0 0 0 0 0 0
0 0 0 0 0 0 0 0 0 0 0 0 0 0 0 0 0 0 0 0 0 0 0 0 0 0 0 0 0 0 0 0 0 0 0 0 0 0 0 0 0 0 0 0 0 0 0 0 0
0 0 0 0 0 0 0 0 0 0 0 0 0 0 0 0 0 0 0 0 0 0 0 0 0 0 0 0 0 0 0 0 0 0 0 0 0 0 0 0 0 0 0 0 0 0 0 0 0
0 0 0 0 0 0 0 0 0 0 0 0 0 0 0 0 0 0 0 0 0 0 0 0 0 0 0 0 0 0 0 0 0 0 0 0 0 0 0 0 0 0 0 0 0 0 0 0 0
0 0 0 0 0 0 0 0 0 0 0 0 0 0 0 0 0 0 0 0 0 0 0 0 0 0 0 0 0 0 0 0 0 0 0 0 0 0 0 0 0 0 0 0 0 0 0 0 0
0 0 0 0 0 0 0 0 0 0 0 0 0 0 0 0 0 0 0 0 0 0 0 0 0 0 0 0 0 0 0 0 0 0 0 0 0 0 0 0 0 0 0 0 0 0 0 0 0
0 0 0 0 0 0 0 0 0 0 0 0 0 0 0 0 0 0 0 0 0 0 0 0 0 0 0 0 0 0 0 0 0 0 0 0 0 0 0 0 0 0 0 0 0 0 0 0 0
0 0 0 0 0 0 0 0 0 0 0 0 0 0 0 0 0 0 0 0 0 0 0 0 0 0 0 0 0 0 0 0 0 0 0 0 0 0 0 0 0 0 0 0 0 0 0 0 0
0 0 0 0 0 0 0 0 0 0 0 0 0 0 0 0 0 0 0 0 0 0 0 0 0 0 0 0 0 0 0 0 0 0 0 0 0 0 0 0 0 0 0 0 0 0 0 0 0
0 0 0 0 0 0 0 0 0 0 0 0 0 0 0 0 0 0 0 0 0 0 0 0 0 0 0 0 0 0 0 0 0 0 0 0 0 0 0 0 0 0 0 0 0 0 0 0 0
0 0 0 0 0 0 0 0 0 0 0 0 0 0 0 0 0 0 0 0 0 0 0 0 0 0 0 0 0 0 0 0 0 0 0 0 0 0 0 0 0 0 0 0 0 0 0 0 0
0 0 0 0 0 0 0 0 0 0 0 0 0 0 0 0 0 0 0 0 0 0 0 0 0 0 0 0 0 0 0 0 0 0 0 0 0 0 0 0 0 0 0 0 0 0 0 0 0
0 0 0 0 0 0 0 0 0 0 0 0 0 0 0 0 0 0 0 0 0 0 0 0 0 0 0 0 0 0 0 0 0 0 0 0 0 0 0 0 0 0 0 0 0 0 0 0 0
0 0 0 0 0 0 0 0 0 0 0 0 0 0 0 0 0 0 0 0 0 0 0 0 0 0 0 0 0 0 0 0 0 0 0 0 0 0 0 0 0 0 0 0 0 0 0 0 0
Wind_Speed
6 9 6 2 3 2 6 6 8 7 6 6 8 8 8 7 7 10 4 5 5 5 8 11 14 15 16 17 18 19 20 20 21 21 22 22 22 23 23 23 24 24 24 25 25 26 26 26 27
7 6 4 3 3 2 6 7 10 8 9 6 4 7 9 8 9 9 6 4 6 7 8 9 13 14 16 17 17 18 19 19 20 21 21 22 22 22 22 23 23 23 23 24 24 24 25 26 26
9 7 4 2 4 5 7 10 13 10 7 5 5 7 7 7 8 6 5 4 7 7 8 8 13 14 15 16 17 17 18 19 19 20 21 21 21 22 22 22 23 23 23 23 23 24 24 24 25
5 4 3 4 8 6 9 13 13 10 5 5 8 8 5 6 5 8 6 5 7 7 7 7 11 12 14 15 15 16 17 18 19 19 20 21 21 21 21 22 22 23 23 23 24 24 24 24 24
3 4 2 6 6 8 11 13 11 9 7 5 7 8 6 6 10 10 6 6 7 6 5 6 9 10 11 13 15 15 16 17 18 18 20 20 20 20 21 21 22 23 23 24 24 24 24 24 24
3 3 3 6 8 8 8 8 7 9 7 5 5 9 7 8 8 8 7 6 6 5 5 5 8 9 9 10 13 14 14 16 17 17 19 20 20 20 21 21 22 23 23 24 24 24 24 25 25
3 3 3 8 7 6 8 5 4 7 6 6 4 8 8 9 8 7 7 7 6 5 5 4 5 6 9 9 10 12 13 15 16 17 19 20 20 21 21 22 23 23 24 24 25 25 25 26 25
4 1 3 6 8 6 9 4 2 3 6 4 1 4 9 13 11 7 6 6 6 5 5 5 5 5 4 5 9 11 12 14 16 17 19 19 19 19 20 20 22 24 24 25 25 25 26 26 25
3 2 4 4 6 8 10 5 4 5 7 3 3 7 11 18 13 8 6 6 6 6 5 5 5 4 4 4 8 8 10 12 13 12 17 15 7 7 10 18 23 24 25 25 25 26 27 26 23
4 3 6 6 5 9 10 6 7 4 6 5 6 10 16 13 11 9 8 8 7 6 5 5 4 4 4 5 4 3 4 5 5 4 6 5 6 7 12 18 22 24 25 24 25 27 24 19 10
6 6 5 7 7 10 8 7 8 6 6 8 12 14 14 11 10 10 8 7 7 7 5 5 3 3 3 3 3 2 2 2 4 5 5 5 5 5 6 5 9 10 15 10 14 14 10 10 10
6 6 6 5 4 7 6 6 6 6 2 4 11 18 16 12 11 9 7 7 8 6 5 4 3 3 3 2 3 2 2 2 3 3 4 3 3 4 4 4 5 5 5 6 6 6 9 10 11
6 5 7 5 2 4 4 4 3 6 5 5 9 15 15 12 10 8 7 8 8 7 6 4 2 3 2 1 2 3 2 2 3 3 3 4 3 4 4 4 5 5 5 5 6 7 8 9 10
7 8 7 6 5 2 3 5 4 6 8 8 10 12 12 12 11 8 7 7 7 7 6 4 2 2 1 1 2 2 2 2 2 2 3 4 3 4 4 5 5 5 5 5 6 8 8 7 7
9 7 5 5 5 4 3 6 9 5 9 8 10 10 11 11 10 9 9 8 7 8 7 6 2 1 1 2 2 2 2 2 2 2 3 3 4 4 4 5 5 5 5 6 6 7 6 8 9
5 4 5 7 6 5 2 5 5 10 10 9 9 10 10 11 10 9 9 8 8 8 7 5 2 0 1 2 2 3 2 2 2 1 2 3 4 4 4 4 5 6 5 5 6 6 5 7 7
6 6 4 7 7 6 5 6 6 9 9 9 10 10 11 11 11 9 9 9 9 8 8 6 4 2 0 2 3 3 2 2 2 1 2 2 4 4 4 4 5 6 5 5 8 6 6 8 8
3 5 3 6 8 7 7 8 6 10 10 10 10 10 11 13 13 10 10 10 9 8 7 6 5 3 1 1 2 2 2 3 2 2 2 3 3 4 4 5 6 6 5 5 6 8 8 7 8
4 5 5 3 6 4 8 10 7 13 10 10 10 11 12 12 12 11 11 10 9 8 8 6 4 3 1 0 1 2 2 3 3 3 3 3 4 4 5 5 5 5 5 7 8 8 9 8 6
5 6 4 4 6 4 6 9 7 10 14 12 11 11 12 11 11 12 12 11 11 10 9 7 6 3 2 1 1 2 3 4 4 3 2 3 4 5 6 5 5 6 6 7 8 7 7 9 7
6 2 3 4 3 7 4 6 5 2 6 9 10 10 9 11 11 12 12 11 10 10 9 7 6 4 3 2 1 3 3 3 3 3 3 4 5 5 5 6 6 6 6 6 8 7 8 10 10
2 5 2 4 5 2 5 3 7 6 6 9 11 11 11 10 9 10 13 13 12 9 8 8 6 5 4 2 2 2 3 4 4 3 4 5 5 5 5 6 6 6 6 7 8 8 7 9 11
2 2 3 5 4 5 5 4 4 6 7 11 12 12 11 10 9 9 12 12 11 10 9 8 7 6 5 4 3 4 4 3 3 4 5 5 4 5 6 6 5 6 6 7 8 8 8 7 9
4 3 4 3 3 5 5 3 4 7 7 6 9 9 9 8 8 7 9 11 9 10 9 7 7 6 5 5 5 5 4 5 5 6 5 4 4 4 6 6 5 6 6 7 7 7 9 9 9
4 3 2 3 3 4 3 3 7 6 6 5 6 8 8 8 8 8 10 11 11 11 9 8 7 7 7 6 5 4 4 5 6 5 5 5 4 4 5 6 6 6 7 7 7 7 9 9 9
2 3 3 3 3 1 3 6 6 7 6 4 3 3 5 7 7 9 10 11 11 11 10 9 8 7 6 5 4 4 4 3 3 4 5 5 4 5 6 6 7 8 7 8 7 7 8 8 8
3 2 2 3 4 4 6 6 3 5 5 5 6 7 8 8 9 9 10 10 11 11 10 9 9 7 6 5 5 5 4 4 5 5 5 5 5 6 6 7 8 7 7 7 7 6 9 8 7
3 4 2 3 3 5 7 7 6 7 9 10 10 10 11 9 9 10 10 11 10 10 9 9 8 7 6 5 5 4 4 5 5 5 6 6 6 6 7 7 7 8 7 7 7 7 8 9 8
5 4 4 4 2 3 5 7 3 9 8 6 7 7 8 10 11 10 10 10 10 9 9 8 8 7 6 6 5 4 4 5 5 5 6 6 5 6 7 7 8 8 7 7 7 8 10 9 9
2 5 6 4 5 5 4 11 6 6 5 5 6 5 5 7 9 10 10 10 10 10 9 9 8 7 7 6 5 4 5 5 5 6 6 5 6 6 7 7 8 8 9 8 8 10 11 10 11
Wind_Direction
239 237 234 255 248 116 89 88 104 118 82 58 46 62 69 43 41 114 119 76 70 54 44 25 23 28 28 29 29 27 25 23 22 20 18 17 16 15 14 13 11 9 7 4 3 1 358 357 355
260 247 255 236 256 127 102 118 110 87 102 115 83 87 89 81 88 107 115 97 82 66 54 30 29 32 32 30 28 26 24 21 19 17 15 13 12 12 10 11 9 6 4 2 0 358 355 353 351
270 262 253 250 44 41 115 111 103 101 120 118 77 40 66 101 105 97 112 123 93 77 70 37 35 35 33 30 28 25 22 20 17 15 13 11 9 8 8 7 6 3 1 359 357 355 352 351 348
277 249 231 54 72 49 107 115 122 125 117 103 114 94 69 48 82 110 129 112 91 82 82 55 39 37 34 30 26 23 20 17 14 12 10 8 6 6 5 5 3 360 357 356 354 352 350 348 345
236 258 183 95 85 85 98 120 141 142 134 141 129 111 104 91 101 115 113 92 89 89 92 80 49 38 33 29 24 20 17 13 11 10 8 5 4 3 2 2 -0 357 354 353 351 348 347 345 342
261 270 255 120 113 105 110 136 160 126 119 130 129 116 120 135 130 125 126 109 96 93 85 84 56 39 29 27 21 14 11 9 7 7 6 3 2 0 360 0 357 354 353 351 349 346 345 343 340
294 303 29 100 126 144 139 151 160 129 139 153 148 117 132 156 137 139 136 119 103 90 76 69 61 35 16 16 20 5 7 5 4 5 4 2 1 359 357 358 353 351 351 349 346 345 344 341 340
315 272 100 117 148 143 132 147 83 108 109 82 116 151 159 159 142 149 135 126 123 111 85 55 55 43 20 359 4 2 4 4 3 4 2 3 1 357 353 354 349 349 349 347 345 346 343 341 341
281 239 105 96 142 130 137 142 84 32 96 117 61 36 121 136 145 152 155 167 152 122 101 75 48 32 15 353 2 2 0 2 2 1 360 1 353 347 347 346 347 348 347 346 345 344 343 344 340
341 48 65 30 33 129 152 150 141 164 147 160 123 94 115 136 153 172 188 174 144 114 97 85 61 32 21 1 356 346 355 0 352 359 357 353 351 342 350 344 344 345 343 344 342 341 344 341 332
35 65 87 45 37 118 148 139 153 185 191 186 169 149 145 159 172 190 191 146 121 112 99 98 90 58 38 354 345 336 336 357 343 354 354 356 350 341 344 340 337 339 338 340 336 337 335 330 328
78 66 83 78 47 116 140 138 173 225 73 61 154 154 159 176 188 194 180 141 126 119 116 103 101 87 57 5 329 316 340 354 330 341 350 359 342 338 338 330 328 330 326 328 330 328 323 322 322
92 102 85 97 93 105 126 166 215 223 139 102 126 148 167 184 191 192 167 139 141 137 130 122 119 90 63 336 309 339 333 337 317 328 349 359 347 336 331 325 323 320 320 326 325 316 315 317 316
113 118 120 127 113 116 191 203 216 232 141 142 149 163 178 191 193 181 159 158 159 144 135 115 94 78 33 353 341 315 314 303 310 329 343 350 354 335 326 321 316 313 319 319 311 310 311 308 307
136 130 142 159 164 148 247 241 210 181 141 164 170 179 189 198 197 186 170 175 166 146 137 129 144 101 19 2 330 303 278 292 306 316 336 348 356 330 325 313 310 309 312 310 306 305 302 306 310
184 183 184 174 173 127 216 275 159 141 157 183 184 189 196 204 201 190 177 172 158 146 142 137 156 88 15 347 300 276 275 301 293 313 328 346 342 325 320 309 306 304 308 306 303 298 306 305 301
203 233 156 154 186 158 213 263 142 145 176 194 195 200 199 206 206 194 182 167 159 156 147 150 149 185 280 302 284 291 302 309 305 319 318 324 321 317 316 304 296 305 306 300 305 314 303 301 301
359 339 358 149 179 195 224 251 197 174 191 205 202 206 206 209 206 196 183 167 159 151 143 154 161 175 170 292 315 313 316 315 300 289 286 310 308 313 312 294 297 304 301 300 301 301 298 296 299
338 317 306 97 144 209 248 260 238 176 194 212 215 210 214 214 202 189 179 163 155 153 157 164 167 167 156 157 323 307 307 298 289 275 284 305 307 305 296 294 295 297 297 297 298 299 303 302 300
277 285 318 98 157 211 274 274 258 181 195 205 217 221 217 213 199 186 174 167 166 168 167 168 171 161 168 161 245 254 265 265 264 262 296 304 297 290 296 293 293 292 294 296 297 301 301 305 310
269 286 1 338 286 215 262 269 180 175 192 200 217 230 232 215 201 186 177 173 171 174 169 168 150 165 192 183 240 276 283 286 297 321 314 291 286 285 286 286 288 290 292 294 297 300 306 308 307
324 59 359 300 296 239 193 277 204 181 208 218 221 225 231 230 207 186 177 175 174 168 148 145 153 182 196 195 232 270 281 283 287 287 278 283 289 294 292 287 290 293 291 291 298 311 304 303 307
351 59 287 279 269 277 206 245 202 171 212 218 215 217 220 217 205 189 175 171 165 151 144 148 161 189 196 202 228 249 264 273 283 287 287 293 295 293 291 289 296 294 291 291 296 300 299 299 298
312 269 235 263 263 256 180 216 234 197 198 186 190 195 199 196 190 176 157 151 146 140 142 153 174 195 194 205 226 238 258 277 290 293 295 295 291 288 291 297 298 294 291 292 294 298 300 299 296
226 271 241 228 223 225 133 218 250 170 154 170 185 186 184 178 171 164 156 155 152 150 155 165 184 201 197 204 222 237 250 262 270 282 288 292 290 290 290 301 293 290 288 293 298 304 300 298 299
264 282 314 285 289 333 201 232 249 149 144 148 165 178 178 179 176 172 166 162 160 161 165 174 190 200 194 201 223 234 247 251 257 268 275 281 281 281 286 292 290 289 293 304 302 300 298 298 298
279 229 24 305 290 275 253 231 186 136 168 198 212 214 214 202 184 174 166 165 166 168 172 179 186 193 193 199 217 234 245 260 263 270 274 271 271 285 293 294 290 291 294 296 299 294 296 295 294
269 318 262 239 265 278 282 262 222 188 221 215 214 220 219 200 182 174 173 173 170 168 170 176 182 191 189 195 216 228 232 248 257 268 271 272 278 286 291 290 292 293 293 294 296 294 293 294 294
186 221 233 262 273 240 277 271 226 172 181 193 209 212 205 191 182 178 175 171 164 160 164 172 183 188 189 198 211 230 245 253 261 264 268 275 281 287 289 292 294 295 294 293 292 291 295 292 293
212 219 199 212 229 210 246 269 247 182 171 188 218 218 192 178 174 172 169 166 166 167 170 179 186 187 190 192 199 226 245 254 258 264 273 281 285 285 286 290 294 296 298 291 287 290 294 289 289